Dothan, AL

5:55 PM CDT on April 30, 2017 (GMT -0500)
Dothan Regional

Weather History for KDHN - March, 2014

Change the Weather History Date:

Saturday, March 8, 2014

  Actual Average Record
Temperature  
Mean Temperature 54 °F 57 °F  
Max Temperature 68 °F 70 °F 84 °F (1951)
Min Temperature 40 °F 45 °F 29 °F (1960)
Degree Days  
Heating Degree Days 11 8  
Month to date heating degree days 111 70  
Since 1 July heating degree days 1776 1629  
Cooling Degree Days 0 1  
Month to date cooling degree days 0 8  
Year to date cooling degree days 9 18  
Growing Degree Days 2 (Base 50)    
Moisture  
Dew Point 44 °F    
Average Humidity 71    
Maximum Humidity 93    
Minimum Humidity 45    
Precipitation  
Precipitation 0.00 in 0.18 in 1.62 in (1958)
Month to date precipitation 0.27 1.26  
Year to date precipitation 8.00 10.66  
Sea Level Pressure  
Sea Level Pressure 30.18 in    
Wind  
Wind Speed 5 mph (WSW)    
Max Wind Speed 8 mph    
Max Gust Speed -    
Visibility 10 miles    
Events      
T = Trace of Precipitation, MM = Missing Value Source: NWS Daily Summary

Daily Weather History Graph

Daily Weather History Graph

Search for Another Location

Airport or City:

Trip Planner

Search our weather history database for the weather conditions in past years. The results will help you decide how hot, cold, wet, or windy it might be!

Date:

Astronomy

Mar. 08, 2014 Rise Set
Actual Time 6:00 AM CST 5:45 PM CST
Civil Twilight 5:36 AM CST 6:09 PM CST
Nautical Twilight 5:08 AM CST 6:37 PM CST
Astronomical Twilight 4:39 AM CST 7:05 PM CST
Moon 11:04 AM CST (3/8) 12:19 AM CST (3/8)
Length of Visible Light 12h 33m
Length of Day
11h 44m
First Quarter, 52% of the Moon is Illuminated
Mar 8
First Quarter
Mar 16
Full
Mar 23
Last Quarter
Mar 30
New
Apr 7
First Quarter

Hourly Weather History & Observations

Time (CST) Temp. Windchill Dew Point Humidity Pressure Visibility Wind Dir Wind Speed Gust Speed Precip Events Conditions
12:53 AM 44.1 °F 40.8 °F 41.0 °F 89% 30.12 in 10.0 mi SW 5.8 mph - N/A   Clear
1:53 AM 44.1 °F 42.5 °F 41.0 °F 89% 30.12 in 10.0 mi SW 3.5 mph - N/A   Clear
2:53 AM 44.1 °F 40.1 °F 42.1 °F 93% 30.12 in 10.0 mi SW 6.9 mph - N/A   Clear
3:53 AM 42.1 °F - 39.9 °F 92% 30.12 in 10.0 mi Calm Calm - N/A   Clear
4:53 AM 42.1 °F - 39.9 °F 92% 30.14 in 10.0 mi Calm Calm - N/A   Clear
5:53 AM 39.9 °F - 37.9 °F 93% 30.17 in 9.0 mi Calm Calm - N/A   Clear
6:53 AM 45.0 °F 42.6 °F 43.0 °F 93% 30.21 in 10.0 mi SW 4.6 mph - N/A   Clear
7:53 AM 51.1 °F - 46.0 °F 83% 30.22 in 10.0 mi SW 5.8 mph - N/A   Clear
8:53 AM 54.0 °F - 46.9 °F 77% 30.24 in 10.0 mi SW 8.1 mph - N/A   Clear
9:53 AM 57.9 °F - 45.0 °F 62% 30.23 in 10.0 mi SW 4.6 mph - N/A   Clear
10:53 AM 61.0 °F - 46.0 °F 58% 30.24 in 10.0 mi SSW 6.9 mph - N/A   Partly Cloudy
11:53 AM 63.0 °F - 45.0 °F 52% 30.21 in 10.0 mi SW 5.8 mph - N/A   Partly Cloudy
12:53 PM 66.0 °F - 46.0 °F 48% 30.18 in 10.0 mi Calm Calm - N/A   Clear
1:53 PM 66.9 °F - 46.0 °F 47% 30.16 in 10.0 mi WSW 8.1 mph - N/A   Scattered Clouds
2:53 PM 66.0 °F - 45.0 °F 47% 30.15 in 10.0 mi West 5.8 mph - N/A   Scattered Clouds
3:53 PM 66.9 °F - 45.0 °F 45% 30.14 in 10.0 mi WSW 6.9 mph - N/A   Partly Cloudy
4:53 PM 66.0 °F - 46.0 °F 48% 30.14 in 10.0 mi WSW 8.1 mph - N/A   Clear
5:53 PM 62.1 °F - 46.0 °F 56% 30.15 in 10.0 mi WSW 4.6 mph - N/A   Clear
6:53 PM 59.0 °F - 46.0 °F 62% 30.16 in 10.0 mi WSW 3.5 mph - N/A   Clear
7:53 PM 57.9 °F - 46.0 °F 65% 30.18 in 10.0 mi WSW 4.6 mph - N/A   Clear
8:53 PM 55.9 °F - 46.9 °F 72% 30.20 in 10.0 mi SW 8.1 mph - N/A   Clear
9:53 PM 54.0 °F - 46.0 °F 75% 30.21 in 10.0 mi WSW 6.9 mph - N/A   Clear
10:53 PM 53.1 °F - 45.0 °F 74% 30.21 in 10.0 mi West 5.8 mph - N/A   Clear
11:53 PM 52.0 °F - 46.0 °F 80% 30.21 in 10.0 mi West 6.9 mph - N/A   Clear